This is the latest recevied weather packets stored in our database for station/object WY7EM. If no packets are shown the sender has not sent any weather packets the latest 10 day(s).
| Time | Temp. | Humidity | Pressure | Rain* | Wind** | Luminosity | Snow |
|---|---|---|---|---|---|---|---|
| 1777533881 | 15° C | 33% | 1015.2 hPa | 0 mm | - | 0 W/m² | - |
| 1777533577 | 15° C | 32% | 1015.2 hPa | 0 mm | - | 0 W/m² | - |
| 1777533273 | 15° C | 32% | 1015.2 hPa | 0 mm | - | 0 W/m² | - |
| 1777532969 | 15° C | 32% | 1015.1 hPa | 0 mm | - | 0 W/m² | - |
| 1777532667 | 15° C | 32% | 1015.2 hPa | 0 mm | - | 0 W/m² | - |
| 1777532364 | 15° C | 32% | 1015.1 hPa | 0 mm | - | 0 W/m² | - |
| 1777532060 | 15.56° C | 32% | 1015.2 hPa | 0 mm | - | 0 W/m² | - |
| 1777531756 | 15.56° C | 31% | 1015.1 hPa | 0 mm | - | 0 W/m² | - |
| 1777531452 | 15.56° C | 31% | 1015.2 hPa | 0 mm | - | 0 W/m² | - |
| 1777531150 | 15.56° C | 31% | 1015.2 hPa | 0 mm | - | 0 W/m² | - |
| 1777530848 | 15.56° C | 31% | 1015.1 hPa | 0 mm | - | 0 W/m² | - |
| 1777530545 | 15.56° C | 31% | 1014.9 hPa | 0 mm | - | 0 W/m² | - |
| 1777530241 | 15.56° C | 30% | 1014.8 hPa | 0 mm | - | 0 W/m² | - |
| 1777529938 | 15.56° C | 30% | 1014.9 hPa | 0 mm | - | 0 W/m² | - |
| 1777529635 | 16.11° C | 29% | 1014.7 hPa | 0 mm | - | 0 W/m² | - |
| 1777529332 | 16.67° C | 28% | 1014.8 hPa | 0 mm | - | 0 W/m² | - |
| 1777529028 | 16.67° C | 26% | 1014.6 hPa | 0 mm | - | 0 W/m² | - |
| 1777528723 | 16.67° C | 26% | 1014.7 hPa | 0 mm | - | 0 W/m² | - |
| 1777528421 | 17.22° C | 26% | 1014.6 hPa | 0 mm | - | 0 W/m² | - |
| 1777528119 | 16.67° C | 25% | 1014.5 hPa | 0 mm | - | 0 W/m² | - |
| 1777527817 | 15.56° C | 28% | 1014.5 hPa | 0 mm | - | 0 W/m² | - |
| 1777527512 | 16.11° C | 27% | 1014.6 hPa | 0 mm | - | 0 W/m² | - |
| 1777527207 | 16.67° C | 26% | 1014.7 hPa | 0 mm | - | 0 W/m² | - |
| 1777526903 | 16.11° C | 27% | 1014.4 hPa | 0 mm | - | 0 W/m² | - |
| 1777526598 | 16.11° C | 27% | 1014.4 hPa | 0 mm | - | 0 W/m² | - |
* Rain latest hour (hover to see other rain measurements)
** Current wind speed in m/s (hover to see current wind gust speed)